Crystal Mt.
Crystal Mt. - Green Valley & Campbell Basin
Latest observation 08/31 20:00 PDT
| Time (PDT) | Temp °F 6230' | Temp °F 5940' | RH 6230' | 24Sno in 6230' | SnoHt in 6230' | 24Sno in 5940' | SnoHt in 5940' |
|---|---|---|---|---|---|---|---|
| 08/31 20:00 | – | 57 | – | – | – | 0.2 | 2.2 |
| 08/31 19:00 | – | 58 | – | – | – | 0.2 | 2.3 |
| 08/31 18:00 | – | 63 | – | – | – | 0.2 | 2.1 |
| 08/31 17:00 | – | 66 | – | – | – | 0.0 | 2.0 |
| 08/31 16:00 | – | 66 | – | – | – | 0.0 | 2.4 |
| 08/31 15:00 | – | 66 | – | – | – | -0.0 | 2.2 |
| 08/31 14:00 | – | 66 | – | – | – | 0.0 | 2.3 |
| 08/31 13:00 | – | 64 | – | – | – | 0.0 | 2.3 |
| 08/31 12:00 | – | 60 | – | – | – | 0.2 | 2.6 |
| 08/31 11:00 | – | 60 | – | – | – | 0.4 | 2.3 |
| 08/31 10:00 | – | 57 | – | – | – | 0.2 | 2.6 |
| 08/31 09:00 | – | 57 | – | – | – | 0.1 | 2.5 |
| 08/31 08:00 | – | 54 | – | – | – | 0.2 | 2.3 |
| 08/31 07:00 | – | 51 | – | – | – | 0.2 | 2.6 |
| 08/31 06:00 | – | 53 | – | – | – | 0.4 | 2.5 |
| 08/31 05:00 | – | 55 | – | – | – | 0.4 | 2.5 |
| 08/31 04:00 | – | 54 | – | – | – | 0.2 | 2.7 |
| 08/31 03:00 | – | 54 | – | – | – | 0.2 | 2.8 |
| 08/31 02:00 | – | 53 | – | – | – | 0.4 | 2.5 |
| 08/31 01:00 | – | 53 | – | – | – | 0.4 | 2.7 |
| 08/31 00:00 | – | 52 | – | – | – | 0.4 | 2.6 |
| 08/30 23:00 | – | 48 | – | – | – | 0.2 | 2.5 |
| 08/30 22:00 | – | 44 | – | – | – | 0.4 | 2.6 |
| 08/30 21:00 | – | 44 | – | – | – | 0.4 | 2.7 |
| 08/30 20:00 | – | 43 | – | – | – | 0.2 | 2.5 |
| 08/30 19:00 | – | 44 | – | – | – | 0.2 | 2.4 |
| 08/30 18:00 | – | 48 | – | – | – | 0.2 | 2.5 |
| 08/30 17:00 | – | 51 | – | – | – | 0.0 | 2.7 |
| 08/30 16:00 | – | 53 | – | – | – | -0.0 | 2.6 |
| 08/30 15:00 | – | 52 | – | – | – | -0.0 | 2.4 |
| 08/30 14:00 | – | 53 | – | – | – | -0.0 | 1.9 |
| 08/30 13:00 | – | 48 | – | – | – | 0.2 | 1.5 |
| 08/30 12:00 | – | 49 | – | – | – | 0.4 | 1.1 |
| 08/30 11:00 | – | 47 | – | – | – | 0.4 | 1.2 |
| 08/30 10:00 | – | 40 | – | – | – | 0.2 | 1.1 |
| 08/30 09:00 | – | 41 | – | – | – | 0.2 | 1.7 |
| 08/30 08:00 | – | 37 | – | – | – | 0.3 | 1.7 |
| 08/30 07:00 | – | 34 | – | – | – | 0.3 | 1.5 |
| 08/30 06:00 | – | 33 | – | – | – | 0.3 | 1.6 |
| 08/30 05:00 | – | 34 | – | – | – | 0.4 | 2.0 |
| 08/30 04:00 | – | 34 | – | – | – | 0.3 | 1.9 |
| 08/30 03:00 | – | 36 | – | – | – | 0.3 | 1.2 |
| 08/30 02:00 | – | 37 | – | – | – | 0.3 | 1.2 |
| 08/30 01:00 | – | 37 | – | – | – | 0.3 | 1.4 |
| 08/30 00:00 | – | 37 | – | – | – | 0.3 | 1.3 |
| 08/29 23:00 | – | 38 | – | – | – | 0.3 | 1.6 |
| 08/29 22:00 | – | 38 | – | – | – | 0.3 | 1.3 |
| 08/29 21:00 | – | 38 | – | – | – | 0.3 | 1.7 |
| 08/29 20:00 | – | 38 | – | – | – | 0.3 | 1.7 |
| 08/29 19:00 | – | 39 | – | – | – | 0.2 | 1.4 |
| 08/29 18:00 | – | 39 | – | – | – | 0.3 | 1.5 |
| 08/29 17:00 | – | 40 | – | – | – | 0.2 | 1.8 |
| 08/29 16:00 | – | 41 | – | – | – | 0.3 | 1.9 |
| 08/29 15:00 | – | 42 | – | – | – | 0.2 | 2.3 |
| 08/29 14:00 | – | 39 | – | – | – | 0.2 | 3.0 |
| 08/29 13:00 | – | 39 | – | – | – | 0.2 | 3.6 |
| 08/29 12:00 | – | 37 | – | – | – | 0.3 | 3.7 |
| 08/29 11:00 | – | 35 | – | – | – | 0.3 | 3.8 |
| 08/29 10:00 | – | 37 | – | – | – | 0.3 | 3.6 |
| 08/29 09:00 | – | 36 | – | – | – | 0.3 | 3.8 |
| 08/29 08:00 | – | 35 | – | – | – | 0.3 | 3.2 |
| 08/29 07:00 | – | 36 | – | – | – | 0.2 | 1.5 |
| 08/29 06:00 | – | 36 | – | – | – | 0.2 | 1.4 |
| 08/29 05:00 | – | 37 | – | – | – | 0.2 | 1.7 |
| 08/29 04:00 | – | 39 | – | – | – | 0.2 | 1.7 |
| 08/29 03:00 | – | 40 | – | – | – | 0.2 | 2.3 |
| 08/29 02:00 | – | 41 | – | – | – | 0.3 | 1.9 |
| 08/29 01:00 | – | 42 | – | – | – | 0.2 | 2.5 |
| 08/29 00:00 | – | 42 | – | – | – | 0.2 | 2.6 |
| 08/28 23:00 | – | 43 | – | – | – | 0.2 | 2.3 |
| 08/28 22:00 | – | 43 | – | – | – | 0.2 | 2.0 |
| 08/28 21:00 | – | 44 | – | – | – | 0.2 | 2.4 |
| 08/28 20:00 | – | 45 | – | – | – | 0.2 | 2.3 |
| 08/28 19:00 | – | 46 | – | – | – | 0.2 | 2.6 |
| 08/28 18:00 | – | 46 | – | – | – | 0.2 | 2.5 |
| 08/28 17:00 | – | 47 | – | – | – | 0.2 | 2.2 |
| 08/28 16:00 | – | 49 | – | – | – | 0.2 | 2.4 |
| 08/28 15:00 | – | 51 | – | – | – | 0.2 | 2.3 |
| 08/28 14:00 | – | 52 | – | – | – | 0.2 | 2.3 |
| 08/28 13:00 | – | 57 | – | – | – | 0.1 | 2.2 |
| 08/28 12:00 | – | 54 | – | – | – | 0.2 | 2.3 |
| 08/28 11:00 | – | 56 | – | – | – | 0.2 | 2.4 |
| 08/28 10:00 | – | 49 | – | – | – | 0.2 | 2.2 |
| 08/28 09:00 | – | 51 | – | – | – | 0.2 | 2.4 |
| 08/28 08:00 | – | 46 | – | – | – | 0.2 | 2.5 |
| 08/28 07:00 | – | 43 | – | – | – | 0.2 | 2.7 |
| 08/28 06:00 | – | 40 | – | – | – | 0.3 | 2.6 |
| 08/28 05:00 | – | 39 | – | – | – | 0.2 | 2.5 |
| 08/28 04:00 | – | 39 | – | – | – | 0.2 | 2.4 |
| 08/28 03:00 | – | 40 | – | – | – | 0.2 | 2.6 |
| 08/28 02:00 | – | 41 | – | – | – | 0.2 | 2.5 |
| 08/28 01:00 | – | 42 | – | – | – | 0.4 | 2.4 |
| 08/28 00:00 | – | 43 | – | – | – | 0.2 | 2.5 |
| 08/27 23:00 | – | 43 | – | – | – | 0.2 | 2.5 |
| 08/27 22:00 | – | 44 | – | – | – | 0.2 | 2.4 |
| 08/27 21:00 | – | 45 | – | – | – | 0.2 | 2.4 |
| 08/27 20:00 | – | 46 | – | – | – | 0.2 | 2.5 |
| 08/27 19:00 | – | 48 | – | – | – | 0.2 | 2.5 |
| 08/27 18:00 | – | 49 | – | – | – | 0.2 | 2.6 |
| 08/27 17:00 | – | 49 | – | – | – | 0.2 | 2.5 |
| 08/27 16:00 | – | 50 | – | – | – | 0.2 | 2.5 |
| 08/27 15:00 | – | 49 | – | – | – | 0.2 | 2.5 |
| 08/27 14:00 | – | 51 | – | – | – | 0.2 | 2.5 |
| 08/27 13:00 | – | 51 | – | – | – | 0.2 | 2.5 |
| 08/27 12:00 | – | 51 | – | – | – | 0.2 | 2.5 |
| 08/27 11:00 | – | 54 | – | – | – | 0.2 | 2.3 |
| 08/27 10:00 | – | 47 | – | – | – | 0.2 | 2.5 |
| 08/27 09:00 | – | 47 | – | – | – | 0.2 | 2.6 |
| 08/27 08:00 | – | 48 | – | – | – | 0.2 | 2.5 |
| 08/27 07:00 | – | 47 | – | – | – | 0.2 | 2.5 |
| 08/27 06:00 | – | 48 | – | – | – | 0.2 | 2.4 |
| 08/27 05:00 | – | 47 | – | – | – | 0.2 | 2.4 |
| 08/27 04:00 | – | 51 | – | – | – | 0.4 | 2.5 |
| 08/27 03:00 | – | 51 | – | – | – | 0.3 | 2.5 |
| 08/27 02:00 | – | 51 | – | – | – | 0.2 | 2.4 |
| 08/27 01:00 | – | 52 | – | – | – | 0.4 | 2.5 |
| 08/27 00:00 | – | 53 | – | – | – | 0.4 | 2.4 |
| 08/26 23:00 | – | 54 | – | – | – | 0.2 | 2.4 |
| 08/26 22:00 | – | 55 | – | – | – | 0.2 | 2.6 |
| 08/26 21:00 | – | 54 | – | – | – | 0.2 | 2.4 |
| 08/26 20:00 | – | 55 | – | – | – | 0.4 | 2.6 |
| 08/26 19:00 | – | 59 | – | – | – | 0.2 | 2.6 |
| 08/26 18:00 | – | 62 | – | – | – | 0.2 | 2.4 |
| 08/26 17:00 | – | 63 | – | – | – | 0.0 | 2.5 |
| 08/26 16:00 | – | 66 | – | – | – | 0.1 | 2.3 |
| 08/26 15:00 | – | 67 | – | – | – | 0.1 | 2.3 |
| 08/26 14:00 | – | 68 | – | – | – | 0.0 | 2.5 |
| 08/26 13:00 | – | 69 | – | – | – | 0.1 | 2.3 |
| 08/26 12:00 | – | 70 | – | – | – | 0.2 | 2.5 |
| 08/26 11:00 | – | 71 | – | – | – | 0.1 | 2.3 |
| 08/26 10:00 | – | 70 | – | – | – | 0.2 | 2.5 |
| 08/26 09:00 | – | 69 | – | – | – | 0.1 | 2.1 |
| 08/26 08:00 | – | 65 | – | – | – | 0.2 | 2.3 |
| 08/26 07:00 | – | 64 | – | – | – | 0.2 | 2.5 |
| 08/26 06:00 | – | 61 | – | – | – | 0.2 | 2.2 |
| 08/26 05:00 | – | 59 | – | – | – | 0.4 | 2.5 |
| 08/26 04:00 | – | 56 | – | – | – | 0.2 | 2.5 |
| 08/26 03:00 | – | 62 | – | – | – | 0.2 | 2.6 |
| 08/26 02:00 | – | 61 | – | – | – | 0.2 | 2.7 |
| 08/26 01:00 | – | 56 | – | – | – | 0.4 | 2.5 |
| 08/26 00:00 | – | 55 | – | – | – | 0.2 | 2.5 |
| 08/25 23:00 | – | 55 | – | – | – | 0.2 | 2.6 |
| 08/25 22:00 | – | 54 | – | – | – | 0.4 | 2.5 |
| 08/25 21:00 | – | 58 | – | – | – | 0.2 | 2.4 |
| 08/25 20:00 | – | 57 | – | – | – | 0.4 | 2.6 |
| 08/25 19:00 | – | 61 | – | – | – | 0.2 | 2.6 |
| 08/25 18:00 | – | 66 | – | – | – | 0.1 | 2.3 |
| 08/25 17:00 | – | 70 | – | – | – | 0.1 | 2.3 |
| 08/25 16:00 | – | 72 | – | – | – | 0.0 | 2.1 |
| 08/25 15:00 | – | 72 | – | – | – | 0.1 | 2.5 |
| 08/25 14:00 | – | 74 | – | – | – | 0.0 | 2.3 |
| 08/25 13:00 | – | 75 | – | – | – | 0.1 | 2.4 |
| 08/25 12:00 | – | 71 | – | – | – | 0.1 | 2.6 |
| 08/25 11:00 | – | 71 | – | – | – | 0.1 | 2.5 |
| 08/25 10:00 | – | 70 | – | – | – | 0.1 | 2.4 |
| 08/25 09:00 | – | 68 | – | – | – | 0.1 | 2.3 |
| 08/25 08:00 | – | 63 | – | – | – | 0.2 | 2.4 |
| 08/25 07:00 | – | 61 | – | – | – | 0.4 | 2.5 |
| 08/25 06:00 | – | 63 | – | – | – | 0.4 | 2.5 |
| 08/25 05:00 | – | 62 | – | – | – | 0.2 | 2.4 |
| 08/25 04:00 | – | 60 | – | – | – | 0.4 | 2.5 |
| 08/25 03:00 | – | 59 | – | – | – | 0.2 | 2.3 |
| 08/25 02:00 | – | 60 | – | – | – | 0.4 | 2.5 |
| 08/25 01:00 | – | 56 | – | – | – | 0.2 | 2.5 |
| 08/25 00:00 | – | 56 | – | – | – | 0.4 | 2.7 |
| 08/24 23:00 | – | 56 | – | – | – | 0.2 | 2.5 |
| 08/24 22:00 | – | 57 | – | – | – | 0.2 | 2.6 |
| 08/24 21:00 | – | 58 | – | – | – | 0.2 | 2.5 |

